| time (UTC) | temp F | wind direction | speed knots | gust knots | rain 1hr in | rain 24hr in | rain mn in | humidity % | barometer mb |
| 20260502123001 | 49 | 178 | 1.7 | 3.5 | 0.00 | 0.00 | 0.00 | 35 | 1018.7 |
| 20260502122000 | 49 | 178 | 0.9 | 3.5 | 0.00 | 0.00 | 0.00 | 34 | 1018.5 |
| 20260502121000 | 50 | 178 | 0.9 | 3.5 | 0.00 | 0.00 | 0.00 | 34 | 1018.4 |
| 20260502115001 | 50 | 139 | 1.7 | 3.5 | 0.00 | 0.00 | 0.00 | 33 | 1018.7 |
| 20260502114001 | 51 | 60 | 0.9 | 2.6 | 0.00 | 0.00 | 0.00 | 33 | 1018.5 |
| 20260502113000 | 52 | 131 | 0.0 | 1.7 | 0.00 | 0.00 | 0.00 | 32 | 1018.4 |
| 20260502112000 | 52 | 201 | 1.7 | 3.5 | 0.00 | 0.00 | 0.00 | 32 | 1018.5 |
| 20260502111000 | 52 | 151 | 0.9 | 5.2 | 0.00 | 0.00 | 0.00 | 32 | 1018.5 |
| 20260502105001 | 54 | 270 | 0.9 | 2.6 | 0.00 | 0.00 | 0.00 | 30 | 1018.6 |
| 20260502104000 | 55 | 178 | 0.9 | 3.5 | 0.00 | 0.00 | 0.00 | 29 | 1018.4 |
| 20260502103002 | 56 | 178 | 2.6 | 7.8 | 0.00 | 0.00 | 0.00 | 29 | 1018.3 |
| 20260502102002 | 56 | 178 | 5.2 | 11.3 | 0.00 | 0.00 | 0.00 | 30 | 1018.2 |
| 20260502101001 | 56 | 178 | 5.2 | 10.4 | 0.00 | 0.00 | 0.00 | 30 | 1018.3 |
| 20260502091001 | 57 | 178 | 7.8 | 14.8 | 0.00 | 0.00 | 0.00 | 29 | 1018.2 |
| 20260502071002 | 59 | 178 | 5.2 | 13.9 | 0.00 | 0.00 | 0.00 | 27 | 1018.3 |
| 20260502070002 | 59 | 178 | 5.2 | 11.3 | 0.00 | 0.00 | 0.00 | 26 | 1018.4 |
| 20260502065001 | 59 | 178 | 6.1 | 11.3 | 0.00 | 0.00 | 0.00 | 26 | 1018.3 |
| 20260502064003 | 59 | 178 | 6.1 | 12.2 | 0.00 | 0.00 | 0.00 | 26 | 1018.4 |
| 20260502063003 | 60 | 178 | 6.1 | 16.5 | 0.00 | 0.00 | 0.00 | 26 | 1018.2 |
| 20260502062002 | 60 | 178 | 6.1 | 13.0 | 0.00 | 0.00 | 0.00 | 25 | 1018.2 |
| 20260502061003 | 60 | 178 | 8.7 | 15.6 | 0.00 | 0.00 | 0.00 | 25 | 1018.2 |
| 20260502060004 | 60 | 178 | 7.0 | 17.4 | 0.00 | 0.00 | 0.00 | 25 | 1018.0 |
| 20260502055002 | 60 | 178 | 7.0 | 16.5 | 0.00 | 0.00 | 0.00 | 25 | 1018.0 |
| 20260502054003 | 60 | 178 | 7.0 | 15.6 | 0.00 | 0.00 | 0.00 | 25 | 1018.0 |
| 20260502053002 | 60 | 178 | 6.1 | 13.0 | 0.00 | 0.00 | 0.00 | 26 | 1018.1 |
| 20260502052001 | 60 | 178 | 7.8 | 15.6 | 0.00 | 0.00 | 0.00 | 26 | 1018.1 |
| 20260502051001 | 60 | 178 | 7.0 | 13.0 | 0.00 | 0.00 | 0.00 | 26 | 1018.0 |
| 20260502045001 | 61 | 178 | 7.0 | 14.8 | 0.00 | 0.00 | 0.00 | 26 | 1017.9 |
| 20260502044001 | 61 | 178 | 7.8 | 15.6 | 0.00 | 0.00 | 0.00 | 25 | 1017.7 |
| 20260502043001 | 61 | 178 | 7.0 | 15.6 | 0.00 | 0.00 | 0.00 | 25 | 1017.6 |
| 20260502042002 | 61 | 178 | 5.2 | 15.6 | 0.00 | 0.00 | 0.00 | 25 | 1017.5 |
| 20260502041001 | 61 | 178 | 1.7 | 8.7 | 0.00 | 0.00 | 0.00 | 23 | 1017.4 |
| 20260502040004 | 62 | 178 | 2.6 | 5.2 | 0.00 | 0.00 | 0.00 | 23 | 1017.3 |
| 20260502035001 | 62 | 178 | 4.3 | 7.8 | 0.00 | 0.00 | 0.00 | 22 | 1017.3 |
| 20260502034003 | 62 | 178 | 5.2 | 8.7 | 0.00 | 0.00 | 0.00 | 22 | 1016.9 |
| 20260502033001 | 63 | 178 | 5.2 | 9.6 | 0.00 | 0.00 | 0.00 | 22 | 1016.7 |
| 20260502032002 | 63 | 178 | 5.2 | 8.7 | 0.00 | 0.00 | 0.00 | 22 | 1016.6 |
| 20260502031001 | 64 | 178 | 4.3 | 8.7 | 0.00 | 0.00 | 0.00 | 22 | 1016.6 |
| 20260502030006 | 64 | 178 | 7.0 | 12.2 | 0.00 | 0.00 | 0.00 | 21 | 1016.4 |
| 20260502024003 | 66 | 178 | 7.8 | 11.3 | 0.00 | 0.00 | 0.00 | 20 | 1016.1 |
| 20260502023001 | 66 | 178 | 8.7 | 13.9 | 0.00 | 0.00 | 0.00 | 20 | 1015.9 |
| 20260502022001 | 67 | 178 | 7.8 | 13.0 | 0.00 | 0.00 | 0.00 | 19 | 1015.8 |
| 20260502021002 | 68 | 178 | 8.7 | 13.0 | 0.00 | 0.00 | 0.00 | 19 | 1015.6 |
| 20260502020001 | 68 | 178 | 8.7 | 15.6 | 0.00 | 0.00 | 0.00 | 18 | 1015.3 |
| 20260502015000 | 68 | 178 | 1.7 | 10.4 | 0.00 | 0.00 | 0.00 | 17 | 1015.2 |
| 20260502014002 | 69 | 178 | 0.9 | 7.0 | 0.00 | 0.00 | 0.00 | 16 | 1015.0 |
| 20260502013003 | 69 | 178 | 3.5 | 8.7 | 0.00 | 0.00 | 0.00 | 16 | 1015.0 |
| 20260502012002 | 70 | 178 | 2.6 | 7.8 | 0.00 | 0.00 | 0.00 | 16 | 1014.9 |
| 20260502011002 | 71 | 178 | 5.2 | 9.6 | 0.00 | 0.00 | 0.00 | 16 | 1015.2 |
| 20260502010001 | 71 | 178 | 7.0 | 14.8 | 0.00 | 0.00 | 0.00 | 16 | 1015.0 |
| 20260502005000 | 72 | 178 | 4.3 | 10.4 | 0.00 | 0.00 | 0.00 | 16 | 1015.0 |
| 20260502004002 | 73 | 178 | 6.1 | 13.0 | 0.00 | 0.00 | 0.00 | 15 | 1014.8 |
| 20260502002001 | 73 | 178 | 8.7 | 18.2 | 0.00 | 0.00 | 0.00 | 15 | 1014.8 |
| 20260502000004 | 73 | 178 | 6.1 | 13.0 | 0.00 | 0.00 | 0.00 | 16 | 1014.7 |
| 20260501235000 | 73 | 178 | 5.2 | 13.0 | 0.00 | 0.00 | 0.00 | 16 | 1014.9 |
| 20260501234002 | 73 | 178 | 4.3 | 13.0 | 0.00 | 0.00 | 0.00 | 15 | 1014.8 |
| 20260501233003 | 73 | 178 | 5.2 | 11.3 | 0.00 | 0.00 | 0.00 | 15 | 1014.8 |
| 20260501232003 | 73 | 178 | 2.6 | 9.6 | 0.00 | 0.00 | 0.00 | 15 | 1014.7 |
| 20260501231001 | 73 | 178 | 2.6 | 10.4 | 0.00 | 0.00 | 0.00 | 15 | 1014.8 |
| 20260501230005 | 74 | 178 | 1.7 | 7.0 | 0.00 | 0.00 | 0.00 | 15 | 1014.8 |
| 20260501225001 | 74 | 178 | 2.6 | 9.6 | 0.00 | 0.00 | 0.00 | 15 | 1014.9 |
| 20260501224001 | 74 | 178 | 3.5 | 8.7 | 0.00 | 0.00 | 0.00 | 14 | 1015.1 |
| 20260501223002 | 75 | 178 | 5.2 | 10.4 | 0.00 | 0.00 | 0.00 | 14 | 1015.2 |
| 20260501222000 | 77 | 178 | 4.3 | 13.0 | 0.00 | 0.00 | 0.00 | 14 | 1015.2 |
| 20260501221001 | 76 | 178 | 1.7 | 7.0 | 0.00 | 0.00 | 0.00 | 13 | 1015.3 |
| 20260501220001 | 76 | 178 | 1.7 | 5.2 | 0.00 | 0.00 | 0.00 | 13 | 1015.4 |
| 20260501215001 | 77 | 178 | 7.0 | 14.8 | 0.00 | 0.00 | 0.00 | 13 | 1015.6 |
| 20260501214001 | 77 | 178 | 1.7 | 8.7 | 0.00 | 0.00 | 0.00 | 13 | 1015.5 |
| 20260501213002 | 76 | 178 | 2.6 | 7.8 | 0.00 | 0.00 | 0.00 | 14 | 1015.7 |
| 20260501212003 | 75 | 178 | 1.7 | 7.8 | 0.00 | 0.00 | 0.00 | 14 | 1015.8 |
| 20260501211002 | 76 | 178 | 3.5 | 13.9 | 0.00 | 0.00 | 0.00 | 13 | 1016.1 |
| 20260501205001 | 77 | 178 | 3.5 | 12.2 | 0.00 | 0.00 | 0.00 | 13 | 1015.9 |
| 20260501204000 | 77 | 178 | 4.3 | 12.2 | 0.00 | 0.00 | 0.00 | 13 | 1016.1 |
| 20260501203001 | 77 | 178 | 2.6 | 10.4 | 0.00 | 0.00 | 0.00 | 13 | 1016.1 |
| 20260501202001 | 77 | 178 | 1.7 | 10.4 | 0.00 | 0.00 | 0.00 | 14 | 1016.1 |
| 20260501201003 | 76 | 178 | 2.6 | 8.7 | 0.00 | 0.00 | 0.00 | 14 | 1016.3 |
| 20260501200004 | 75 | 178 | 3.5 | 10.4 | 0.00 | 0.00 | 0.00 | 14 | 1016.3 |
| 20260501195000 | 74 | 178 | 2.6 | 8.7 | 0.00 | 0.00 | 0.00 | 15 | 1016.4 |
| 20260501194002 | 74 | 178 | 4.3 | 13.9 | 0.00 | 0.00 | 0.00 | 15 | 1016.5 |
| 20260501193000 | 74 | 178 | 4.3 | 10.4 | 0.00 | 0.00 | 0.00 | 15 | 1016.5 |
| 20260501192002 | 74 | 178 | 5.2 | 13.0 | 0.00 | 0.00 | 0.00 | 15 | 1016.7 |
| 20260501191000 | 75 | 178 | 4.3 | 13.0 | 0.00 | 0.00 | 0.00 | 15 | 1016.8 |
| 20260501190004 | 75 | 178 | 1.7 | 5.2 | 0.00 | 0.00 | 0.00 | 16 | 1016.8 |
| 20260501184002 | 73 | 178 | 3.5 | 8.7 | 0.00 | 0.00 | 0.00 | 16 | 1017.0 |
| 20260501183002 | 73 | 178 | 3.5 | 10.4 | 0.00 | 0.00 | 0.00 | 17 | 1017.1 |
| 20260501182001 | 72 | 178 | 1.7 | 5.2 | 0.00 | 0.00 | 0.00 | 18 | 1017.1 |
| 20260501181000 | 71 | 178 | 1.7 | 7.8 | 0.00 | 0.00 | 0.00 | 18 | 1017.3 |
| 20260501175000 | 69 | 178 | 4.3 | 10.4 | 0.00 | 0.00 | 0.00 | 20 | 1017.4 |
| 20260501174001 | 69 | 178 | 2.6 | 9.6 | 0.00 | 0.00 | 0.00 | 20 | 1017.3 |
| 20260501173000 | 69 | 178 | 3.5 | 10.4 | 0.00 | 0.00 | 0.00 | 21 | 1017.3 |
| 20260501172000 | 68 | 178 | 2.6 | 9.6 | 0.00 | 0.00 | 0.00 | 22 | 1017.3 |
| 20260501171002 | 67 | 178 | 3.5 | 7.8 | 0.00 | 0.00 | 0.00 | 23 | 1017.3 |
| 20260501170000 | 67 | 178 | 4.3 | 8.7 | 0.00 | 0.00 | 0.00 | 23 | 1017.2 |
| 20260501164959 | 66 | 178 | 1.7 | 9.6 | 0.00 | 0.00 | 0.00 | 23 | 1017.2 |
| 20260501163959 | 66 | 178 | 1.7 | 7.8 | 0.00 | 0.00 | 0.00 | 24 | 1017.2 |
| 20260501163000 | 64 | 178 | 0.9 | 4.3 | 0.00 | 0.00 | 0.00 | 27 | 1017.0 |
| 20260501161959 | 63 | 178 | 0.9 | 2.6 | 0.00 | 0.00 | 0.00 | 28 | 1017.0 |
| 20260501160004 | 61 | 178 | 0.9 | 4.3 | 0.00 | 0.00 | 0.00 | 31 | 1016.8 |
| 20260501155002 | 60 | 178 | 0.9 | 3.5 | 0.00 | 0.00 | 0.00 | 32 | 1016.9 |
| 20260501154000 | 59 | 178 | 0.9 | 4.3 | 0.00 | 0.00 | 0.00 | 35 | 1016.8 |
| 20260501153001 | 58 | 178 | 3.5 | 7.0 | 0.00 | 0.00 | 0.00 | 36 | 1016.6 |
| 20260501152000 | 57 | 178 | 1.7 | 4.3 | 0.00 | 0.00 | 0.00 | 37 | 1016.6 |
| 20260501151000 | 57 | 178 | 1.7 | 3.5 | 0.00 | 0.00 | 0.00 | 37 | 1016.5 |
| 20260501150000 | 56 | 178 | 0.0 | 1.7 | 0.00 | 0.00 | 0.00 | 39 | 1016.6 |
| 20260501145001 | 55 | 178 | 0.0 | 1.7 | 0.00 | 0.00 | 0.00 | 41 | 1016.5 |
| 20260501144001 | 54 | 178 | 0.9 | 2.6 | 0.00 | 0.00 | 0.00 | 42 | 1016.3 |